Location: Unspecified
(50.1700°N, 6.8600°E)
Time: 10:39:30
(UTC+00:00)

GEOS 3 Rocket - Pass Details

Date: 24 January 2019
Orbit: 788 x 831 km, 115.0° (Epoch: 17 February)

Event Time Altitude Azimuth Distance (km) Brightness Sun altitude
Rises 06:17:19 0° 42° (NE) 3,327 7.1 -9.6°
Reaches altitude 10° 06:19:37 10° 43° (NE) 2,387 6.4 -9.3°
Maximum altitude 06:24:49 83° 132° (SE) 808 3.7 -8.5°
Drops below altitude 10° 06:29:55 10° 220° (SW) 2,352 5.8 -7.7°
Sets 06:32:11 0° 222° (SW) 3,275 6.6 -7.4°
